This is the latest recevied weather packets stored in our database for station/object WB5LJZ-5. If no packets are shown the sender has not sent any weather packets the latest 10 day(s).
| Time | Temp. | Humidity | Pressure | Rain* | Wind** | Luminosity | Snow |
|---|---|---|---|---|---|---|---|
| 1777301043 | 24.44° C | - | - | 0 mm | 3.58 m/s, 121° | - | - |
| 1777300408 | 24.44° C | - | - | 0 mm | 2.24 m/s, 103° | - | - |
| 1777299771 | 24.44° C | - | - | 0 mm | 1.79 m/s, 84° | - | - |
| 1777299136 | 24.44° C | - | - | 0 mm | 2.68 m/s, 131° | - | - |
| 1777298500 | 23.89° C | - | - | 0 mm | 2.24 m/s, 134° | - | - |
| 1777297864 | 23.89° C | - | - | 0 mm | 2.68 m/s, 139° | - | - |
| 1777297229 | 23.89° C | - | - | 0 mm | 1.79 m/s, 134° | - | - |
| 1777296593 | 23.89° C | - | - | 0 mm | 0.89 m/s, 135° | - | - |
| 1777295957 | 23.89° C | - | - | 0 mm | 2.68 m/s, 128° | - | - |
| 1777295322 | 23.89° C | - | - | 0 mm | 1.79 m/s, 121° | - | - |
| 1777294050 | 23.33° C | - | - | 0 mm | 0 m/s | - | - |
| 1777293415 | 23.33° C | - | - | 0 mm | 0 m/s | - | - |
| 1777292779 | 23.33° C | - | - | 0 mm | 1.34 m/s, 132° | - | - |
| 1777292143 | 23.33° C | - | - | 0 mm | 3.13 m/s, 115° | - | - |
| 1777291508 | 23.33° C | - | - | 0 mm | 0 m/s | - | - |
| 1777290872 | 23.33° C | - | - | 0 mm | 1.79 m/s, 127° | - | - |
| 1777290238 | 23.33° C | - | - | 0 mm | 0.45 m/s, 145° | - | - |
| 1777288965 | 23.33° C | - | - | 0 mm | 0 m/s | - | - |
| 1777288329 | 23.33° C | - | - | 0 mm | 1.79 m/s, 143° | - | - |
| 1777287693 | 23.33° C | - | - | 0 mm | 0.45 m/s, 142° | - | - |
| 1777287058 | 23.33° C | - | - | 0 mm | 1.34 m/s, 132° | - | - |
| 1777286422 | 23.33° C | - | - | 0 mm | 0.89 m/s, 127° | - | - |
| 1777285786 | 23.33° C | - | - | 0 mm | 1.79 m/s, 359° | - | - |
| 1777285151 | 23.33° C | - | - | 0 mm | 0.89 m/s, 131° | - | - |
| 1777284515 | 23.33° C | - | - | 0 mm | 0 m/s | - | - |
* Rain latest hour (hover to see other rain measurements)
** Current wind speed in m/s (hover to see current wind gust speed)